Location: Lane
(33.5226°N, 79.8788°W)
Time: 03:01:27
(UTC+00:00)

Explorer 7 - Pass Details

Date: 11 October 2022
Orbit: 481 x 665 km, 50.3° (Epoch: 01 December)

Event Time Altitude Azimuth Distance (km) Brightness Sun altitude
Rises 14:54:57 0° 297° (WNW) 2,991 10.1 38.8°
Reaches altitude 10° 14:59:03 10° 331° (NNW) 2,089 9.4 39.4°
Maximum altitude 15:00:38 11° 350° (N) 1,992 9.4 39.6°
Drops below altitude 10° 15:02:14 10° 9° (N) 2,087 9.6 39.8°
Sets 15:06:19 0° 43° (NE) 2,984 10.5 40.4°
